TimeMDT,TemperatureF,Dew PointF,Humidity,Sea Level PressureIn,VisibilityMPH,Wind Direction,Wind SpeedMPH,Gust SpeedMPH,PrecipitationIn,Events,Conditions,WindDirDegrees,DateUTC
12:53 AM,55.9,33.1,42,29.78,10.0,ESE,9.2,-,N/A,,Clear,120,2013-05-22 06:53:00
1:53 AM,52.0,33.1,49,29.77,10.0,ESE,9.2,-,N/A,,Clear,120,2013-05-22 07:53:00
2:53 AM,54.0,32.0,43,29.76,10.0,ESE,8.1,-,N/A,,Clear,110,2013-05-22 08:53:00
3:53 AM,52.0,32.0,47,29.75,10.0,SSE,4.6,-,N/A,,Mostly Cloudy,160,2013-05-22 09:53:00
4:53 AM,48.9,33.1,54,29.76,10.0,SE,6.9,-,N/A,,Clear,130,2013-05-22 10:53:00
5:53 AM,48.0,32.0,54,29.77,10.0,SE,4.6,-,N/A,,Overcast,140,2013-05-22 11:53:00
6:53 AM,48.0,32.0,54,29.79,10.0,South,5.8,-,N/A,,Clear,170,2013-05-22 12:53:00
7:53 AM,55.9,33.1,42,29.77,10.0,South,5.8,-,N/A,,Clear,190,2013-05-22 13:53:00
8:53 AM,63.0,34.0,34,29.75,10.0,Calm,Calm,-,N/A,,Clear,0,2013-05-22 14:53:00
9:53 AM,70.0,28.0,21,29.73,10.0,ENE,11.5,-,N/A,,Clear,70,2013-05-22 15:53:00
10:53 AM,73.0,30.9,21,29.71,10.0,NNW,11.5,-,N/A,,Clear,340,2013-05-22 16:53:00
11:53 AM,75.0,24.1,15,29.70,10.0,Variable,4.6,-,N/A,,Clear,0,2013-05-22 17:53:00
12:53 PM,79.0,21.9,12,29.66,10.0,WSW,12.7,-,N/A,,Clear,240,2013-05-22 18:53:00
1:53 PM,80.1,19.0,10,29.65,9.0,WSW,18.4,24.2,N/A,,Clear,250,2013-05-22 19:53:00
2:53 PM,82.0,18.0,9,29.63,10.0,SW,16.1,23.0,N/A,,Clear,230,2013-05-22 20:53:00
3:53 PM,81.0,18.0,10,29.62,10.0,SW,9.2,-,N/A,,Clear,230,2013-05-22 21:53:00
4:53 PM,80.1,16.0,9,29.62,10.0,WSW,10.4,-,N/A,,Clear,240,2013-05-22 22:53:00
5:53 PM,80.1,18.0,10,29.62,10.0,SSW,15.0,20.7,N/A,,Clear,200,2013-05-22 23:53:00
6:53 PM,79.0,19.0,11,29.62,10.0,WSW,12.7,20.7,N/A,,Clear,240,2013-05-23 00:53:00
7:53 PM,77.0,21.0,12,29.61,10.0,SSW,12.7,-,N/A,,Clear,200,2013-05-23 01:53:00
8:53 PM,72.0,21.9,15,29.62,10.0,South,11.5,-,N/A,,Clear,170,2013-05-23 02:53:00
9:53 PM,66.9,23.0,19,29.63,10.0,SSE,10.4,-,N/A,,Clear,160,2013-05-23 03:53:00
10:53 PM,64.9,24.1,21,29.65,10.0,SSE,11.5,-,N/A,,Clear,160,2013-05-23 04:53:00
11:53 PM,60.1,26.1,27,29.66,10.0,ESE,6.9,-,N/A,,Clear,120,2013-05-23 05:53:00